Observations
| Time | Sensor | AQI | SAQ | Temp °C | Hum % | Pres Pa | CO μg/m³ | H₂S μg/m³ | NO μg/m³ | NO₂ μg/m³ | O₃ μg/m³ | SO₂ μg/m³ | CO₂e PPM | VOC PPM | PM1 μg/m³ | PM2.5 μg/m³ | PM4 μg/m³ | PM10 μg/m³ | TPS µm |
|---|---|---|---|---|---|---|---|---|---|---|---|---|---|---|---|---|---|---|---|
| Wednesday 12 August 2026 | |||||||||||||||||||
| 22:09 | Trim Market St | 3 | 25.6 | 50 | 55,801 | 0 | 1.02 | 0.83 | 20.77 | 66.82 | 0 | 1.43 | 4.52 | 6.03 | |||||
| 22:09 | Trim Patrick St | 3 | 25.1 | 52 | 69,278 | 0 | 15.61 | 0.85 | 27.76 | 52.12 | 10.56 | 5.43 | 10.05 | 11.06 | |||||
| 22:08 | Trim Patrick St | 3 | 25.1 | 52 | 69,250 | 0 | 15.82 | 0.87 | 40.3 | 45.72 | 9.75 | 4.57 | 9.3 | 10.22 | |||||
| 22:07 | Trim Patrick St | 3 | 25.2 | 52 | 69,246 | 0 | 16.85 | 0.84 | 35.65 | 48.18 | 10.16 | 5.43 | 10.82 | 11.9 | |||||
| 22:06 | Trim Market St | 3 | 25.7 | 50 | 55,990 | 0 | 2.71 | 0.83 | 22.27 | 65.05 | 0 | 2.14 | 4.53 | 7.53 | |||||
| 22:06 | Trim Patrick St | 3 | 25.2 | 52 | 69,244 | 0 | 16.9 | 0.84 | 35.47 | 48.74 | 9.92 | 4.57 | 9.33 | 10.26 | |||||
| 22:05 | Trim Patrick St | 3 | 25.2 | 52 | 69,240 | 0 | 16.72 | 0.84 | 28.5 | 53.49 | 10.35 | 3.71 | 9.35 | 10.29 | |||||
| 22:04 | Trim Patrick St | 3 | 25.3 | 52 | 69,232 | 0 | 18.9 | 0.84 | 38.81 | 49.79 | 10.31 | 5.43 | 10.86 | 11.94 | |||||
| 22:03 | Trim Patrick St | 3 | 25.3 | 51 | 69,226 | 0 | 17.83 | 0.87 | 23.16 | 56.99 | 11.04 | 4.57 | 9.38 | 10.32 | |||||
| 22:02 | Trim Patrick St | 3 | 25.3 | 51 | 69,244 | 0 | 18.5 | 0.86 | 45.84 | 43.09 | 10.24 | 5.43 | 10.14 | 11.16 | |||||
| 22:01 | Trim Patrick St | 3 | 25.4 | 52 | 69,240 | 0 | 15.94 | 0.87 | 29.44 | 51.97 | 10.32 | 3.71 | 9.36 | 10.3 | |||||
| 22:00 | Trim Patrick St | 3 | 25.4 | 52 | 69,238 | 0 | 16.53 | 0.87 | 25.69 | 56.54 | 11.11 | 4.57 | 10.11 | 11.12 | |||||
| 21:59 | Trim Patrick St | 3 | 25.4 | 51 | 69,202 | 0 | 16.47 | 0.85 | 21.01 | 60.02 | 10.68 | 3.71 | 8.61 | 9.47 | |||||
| 21:58 | Trim Patrick St | 3 | 25.5 | 51 | 69,212 | 0 | 16.68 | 0.83 | 27.73 | 53.42 | 10.59 | 5.43 | 10.95 | 12.04 | |||||
| 21:57 | Trim Patrick St | 3 | 25.5 | 50 | 69,199 | 0 | 19.05 | 0.86 | 33.39 | 55.1 | 10.44 | 3.71 | 9.45 | 10.39 | |||||
| 21:57 | Trim Market St | 3 | 26 | 49 | 57,802 | 0 | 5.12 | 0.84 | 31.59 | 58.85 | 0 | 2.14 | 4.56 | 5.27 | |||||
| 21:56 | Trim Patrick St | 3 | 25.5 | 51 | 69,179 | 0 | 18.3 | 0.8 | 34.89 | 49.76 | 10.5 | 4.57 | 9.38 | 10.32 | |||||
| 21:56 | Trim Market St | 3 | 26 | 49 | 58,005 | 0 | 3.58 | 0.84 | 26.72 | 58.22 | 0 | 2.14 | 5.09 | 10.54 | |||||
| 21:55 | Trim Patrick St | 3 | 25.6 | 50 | 69,187 | 0 | 17.93 | 0.81 | 28.59 | 53.11 | 10.48 | 4.57 | 9.45 | 10.39 | |||||
| 21:55 | Trim Market St | 3 | 26.1 | 49 | 58,224 | 0 | 6.93 | 0.83 | 43.2 | 48.76 | 0 | 1.43 | 4.57 | 6.02 | |||||